Flag for Germany Weather past 2 weeks in Karlsruhe, Baden-Württemberg, Germany

Now
66 °F

Passing clouds.


Feels Like: 66 °F
Forecast: 50 / 72 °F
Wind: 8 mph from Southwest

Location: Karlsruhe - Baden Wurttemberg

Current Time: Jul 29, 2015 at 8:25:20 PM

Latest Report: Jul 29, 2015 at 7:50 PM


Visibility: N/A

Pressure: 29.92 "Hg

Humidity: 46%

Dew point: 45 °F

Location of KarlsruheLocation

Historic Weather in Karlsruhe — Graph

°F

Karlsruhe temperature yesterday

Maximum temperature yesterday: 72 °F (at 1:20 PM)
Minimum temperature yesterday: 61 °F (at 10:50 PM)
Average temperature yesterday: 67 °F

Past Weeks' High & Low Weather Summary

 TemperatureHumidityPressure
High95 °F (Jul 17, 6:50 PM)94% (Jul 18, 6:20 AM)30.15 "Hg (Jul 18, 6:20 AM)
Low46 °F (Jul 26, 6:50 AM)17% (Jul 16, 5:20 PM)29.65 "Hg (Jul 24, 8:20 PM)
Average74 °F54%29.93 "Hg
* Reported Jul 14 7:20 PM — Jul 29 7:20 PM, Karlsruhe, Weather by CustomWeather, © 2015

Note: Actual official high and low records may vary slightly from our data, if they occured in-between our weather recording intervals... More about our weather records

Advertising

Karlsruhe weather history for previous 24 hours

 ConditionsComfort  
Time TempWeatherWind HumidityBarometerVisibility
7:20 PM
Wed, Jul 29
68 °FSunny.9 mph46%29.89 "Hg10 mi
6:50 PM68 °FPassing clouds.9 mph46%29.89 "HgN/A
6:20 PM66 °FPassing clouds.7 mph49%29.89 "HgN/A
5:50 PM66 °FSunny.12 mph49%29.89 "Hg10 mi
5:20 PM66 °FPassing clouds.12 mph49%29.89 "HgN/A
4:50 PM66 °FPassing clouds.13 mph49%29.89 "HgN/A
4:20 PM64 °FPassing clouds.9 mph56%29.89 "HgN/A
3:50 PM61 °FPartly sunny.8 mph68%29.89 "HgN/A
3:20 PM59 °FBroken clouds.7 mph77%29.89 "Hg6 mi
2:50 PM59 °FLight rain. Broken clouds.7 mph82%29.89 "Hg5 mi
2:20 PM57 °FDrizzle. Partly sunny.9 mph88%29.89 "Hg6 mi
1:50 PM57 °FDrizzle. Partly sunny.7 mph88%29.86 "Hg5 mi
1:20 PM57 °FDrizzle. Fog.7 mph88%29.86 "Hg2 mi
12:50 PM57 °FDrizzle. Fog.5 mph88%29.86 "Hg2 mi
12:20 PM57 °FDrizzle. Fog.3 mph88%29.86 "Hg2 mi
11:50 AM57 °FLight rain. Fog.3 mph88%29.86 "Hg2 mi
11:20 AM57 °FLight rain. Broken clouds.5 mph88%29.83 "Hg4 mi
10:50 AM57 °FBroken clouds.5 mph82%29.86 "Hg3 mi
10:20 AM57 °FLight rain. Broken clouds.6 mph82%29.86 "Hg4 mi
9:20 AM59 °FBroken clouds.3 mph77%29.86 "HgN/A
8:50 AM59 °FBroken clouds.3 mph77%29.86 "HgN/A
8:20 AM57 °FPartly sunny.5 mph82%29.86 "HgN/A
7:50 AM57 °FPartly sunny.3 mph82%29.86 "HgN/A
7:20 AM57 °FScattered clouds.3 mph82%29.86 "HgN/A
6:50 AM57 °FPassing clouds.2 mph82%29.86 "HgN/A
6:20 AM55 °FPassing clouds.3 mph88%29.86 "HgN/A
5:50 AM55 °FPassing clouds.5 mph88%29.89 "HgN/A
4:50 AM55 °FPassing clouds.5 mph88%29.89 "HgN/A
10:50 PM
Tue, Jul 28
61 °FSprinkles. Passing clouds.6 mph63%29.92 "HgN/A
10:20 PM63 °FSprinkles. Passing clouds.8 mph56%29.89 "HgN/A
9:50 PM64 °FPassing clouds.7 mph46%29.89 "HgN/A
9:20 PM66 °FPassing clouds.7 mph43%29.86 "HgN/A
8:50 PM66 °FPassing clouds.7 mph40%29.86 "HgN/A
8:20 PM66 °FPassing clouds.6 mph43%29.86 "HgN/A
Weather by CustomWeather, © 2015

See weather overviewHow to use our weather pages